Regional Weather Roundup
Issued by NWS

Home | Current Version | Previous Version | Text Only | Print | Product List | Glossary Off
Versions: 1 2 3 4 5 6 7 8 9 10 11 12 13 14 15 16 17 18 19 20 21 22 23 24 25 26 27 28 29 30 31 32 33 34 35 36 37 38 39 40 41 42 43 44 45 46 47 48 49 50

000
ASUS43 KLMK 211410
RWRKY
KENTUCKY REGIONAL WEATHER ROUNDUP
NATIONAL WEATHER SERVICE LOUISVILLE KY
1000 AM EDT SUN SEP 21 2014

NOTE "FAIR" INDICATES FEW OR NO CLOUDS BELOW 12,000 FEET
WITH NO SIGNIFICANT WEATHER AND/OR OBSTRUCTIONS TO VISIBILITY.

KYZ001>023-026-027-061>063-070>075-211500-
WESTERN AND SOUTH CENTRAL KENTUCKY

CITY           SKY/WX    TMP DP  RH WIND       PRES   REMARKS
PADUCAH        CLOUDY    78  69  73 W5        29.98R
HENDERSON      CLOUDY    72  70  94 W9        29.95R
OWENSBORO      CLOUDY    74  71  90 W12       29.93S
HOPKINSVILLE   DRIZZLE   72  72 100 W9        29.98R
BOWLING GREEN  MOSUNNY   71  66  84 W8        29.96R
GLASGOW        CLOUDY    70  67  88 SW8       29.96R
$$

KYZ024-025-028>034-038-045-046-053-211500-
NORTH CENTRAL KENTUCKY

CITY           SKY/WX    TMP DP  RH WIND       PRES   REMARKS
LOUISVILLE/SDF PTSUNNY   74  67  78 W13       29.89S
LOUISVILLE/LOU PTSUNNY   74  67  78 W13G20    29.90R
FORT KNOX      MOSUNNY   74  67  81 W9        29.91R
$$

KYZ035>037-039>044-047>052-055>060-089>105-211500-
NORTHEAST KENTUCKY

CITY           SKY/WX    TMP DP  RH WIND       PRES   REMARKS
LEXINGTON      CLOUDY    73  67  81 SW12G18   29.90S
COVINGTON      PTSUNNY   73  66  78 W13       29.84F
FRANKFORT      PTSUNNY   73  67  81 SW10      29.89R
$$

KYZ054-064>069-076>088-106>120-211500-
SOUTHEAST KENTUCKY

CITY           SKY/WX    TMP DP  RH WIND       PRES   REMARKS
JACKSON        PTSUNNY   68  64  87 CALM      29.93F
LONDON         MOSUNNY   72  63  73 SW7       29.96F
SOMERSET       CLOUDY    72  66  83 W9        29.97R
MIDDLESBORO    PTSUNNY   64  62  94 CALM      29.99F
MONTICELLO     MOSUNNY   74  66  75 SW13      29.98R
$$




USA.gov is the U.S. government's official web portal to all federal, state and local government web resources and services.